DELTA 1 DEB, 10864

Orbit data source: Space-Track

DELTA 1 DEB, 10864 is space debris in LEO originally from a launch on Thu, 29 Jul 1976 UTC launched from the Air Force Western Test Range (AFWTR). Debris objects in space refer to the collection of defunct objects orbiting the Earth. Examples of debris include non-operational satellites, rocket bodies, and fragments generated from explosions, collisions, or faulty payload assembly.

Loading next visibility...
Identifier
10864, 1976-077CS
Orbit
LEO
Country
Flag of USUS
Related business
Manufacturer
Unknown
Mission
Spacecraft
Bus & Motor
Unknown
Mass
Unknown
Launch date (UTC)
1976-07-29 (50 years ago)
Launch vehicle
Unknown
Launch site
Air Force Western Test Range (AFWTR)
Object type
Payload
Rocket body
Debris
Shape & HBR
Unknown shape, 0.2 m
Radar Cross Section
Medium (>0.1 m² and <1 m²)

Expand to show TLE details & history
Last TLE update: 2 days ago

TLE from 2 days ago
0 DELTA 1 DEB
1 10864U 76077CS  26254.15061716  .00000025  00000-0  80173-3 0  9991
2 10864 101.0985 315.3903 0376833 217.4920 167.6456 11.75893697141449
Epoch: 2026-09-11T03:36Z
TLE epoch observation values (Epoch: 2026-09-11T03:36:53.322Z)
Latitude
25.52559°
Longitude
-94.36044°
Altitude
2,094.609 km
Speed
6.734 km/s
True Right ascension
20h 40m 09s
True Declination
25° 24' 47"
Sunlit
Object was in full shadow at epoch
Visualization orbit readout
Latitude
Unknown
Longitude
Unknown
Altitude
Unknown
Speed
Unknown
Apparent Right ascension
Unknown
Apparent Declination
Unknown
Sunlit
N/A
Visualization observer readout
Local Sidereal Time
16:32:23
Azimuth
Unknown
Elevation
Unknown
Doppler factor
Unknown
Orbital elements
Apogee altitude
2,095.969 km
Perigee altitude
1,480.498 km
Semi-major axis
8,166.371 km
Eccentricity
0.03768
Inclination
101.0985°
RAAN
315.3903°
Arg. of periapsis
217.492°
True anomaly
168.52877°
Mean anomaly
167.6456°
Eccentric anomaly
168.09114°
Mean motion
2.94103 °/min
Orbital period
122.41 mins
BSTAR
0.00080173
Loading maneuver chart data...
Computing Atmospheric mass density...
Loading historical data...
Loading historical data...
Loading historical data...
Loading historical data...
Loading historical data...
Loading historical data...
Loading historical data...

Documentation

Showing up to 5 results
|